Regional Weather Roundup
Issued by NWS

Home | Current Version | Previous Version | Text Only | Print | Product List | Glossary On
Versions: 1 2 3 4 5 6 7 8 9 10 11 12 13 14 15 16 17 18 19 20 21 22 23 24 25 26 27
000
ASUS45 KBOU 261307
RWRCO

WEATHER ROUNDUP FOR COLORADO
NATIONAL WEATHER SERVICE DENVER/BOULDER CO
700 AM MDT THU MAY 26 2016

NOTE: "FAIR" INDICATES FEW OR NO CLOUDS BELOW 12000 FEET WITH NO
SIGNIFICANT WEATHER AND/OR OBSTRUCTIONS TO VISIBILITY.

COZ001>005-013-030-031-261400-
...NORTHWEST COLORADO...

CITY           SKY/WX    TMP DP  RH WIND       PRES   REMARKS
CRAIG          FAIR      37  33  85 CALM      30.05S
HAYDEN         FAIR      39  27  60 E9        30.04S
MEEKER         FAIR      38  27  64 CALM      30.03S
MOUNT WERNER   NOT AVBL
STEAMBOAT SPGS FAIR      35  28  77 CALM      30.05F
WALDEN         FAIR      32  27  80 CALM      30.11F
$$

COZ006>008-011-261400-
...WEST CENTRAL VALLEYS...

CITY           SKY/WX    TMP DP  RH WIND       PRES   REMARKS
GRAND JUNCTION FAIR      49  30  48 CALM      29.91S
MONTROSE       FAIR      50  23  34 SE9       29.97R
EAGLE          SUNNY     36  21  55 CALM      30.08S
RIFLE          FAIR      41  31  67 SE6       29.98R
DELTA          FAIR      49  25  39 CALM      29.95R
NUCLA          FAIR      50  19  29 E8        29.98S
$$

COZ017>023-064>068-261400-
...SOUTHWEST COLORADO...

CITY           SKY/WX    TMP DP  RH WIND       PRES   REMARKS
DURANGO        CLOUDY    49  29  46 CALM      30.05R
CORTEZ         CLOUDY    44  28  53 NE3       29.98R
PAGOSA SPRINGS FAIR      47  26  45 W3        30.08F
TELLURIDE      FAIR      41  24  50 SE8       30.13S
WOLF CREEK PAS FAIR      30  19  64 CALM      30.24F
$$

COZ009-010-012-014-032>034-037-058>063-261400-
...CENTRAL COLORADO...

CITY           SKY/WX    TMP DP  RH WIND       PRES   REMARKS
ASPEN          FAIR      38  22  52 CALM      30.05S
BUENA VISTA    FAIR      38  16  42 NW6       30.09S
COPPER MTN     NOT AVBL
BERTHOUD PASS  MIX PCPN  25  16  68 E24G30    30.23F VSB 3/4 WCI   9
COTTONWOOD PAS FAIR      43  10  26 CALM      30.14S
GUNNISON       FAIR      36  21  55 CALM      30.11S
KREMMLING      FAIR      32  27  80 CALM      30.11R
LEADVILLE      FAIR      27  11  51 CALM      30.13S
MONARCH PASS   FAIR      32  18  55 MISG      30.31S
SALIDA         FAIR      39  17  41 CALM      30.15S
SUNLIGHT       FAIR      37  18  44 CALM      30.19S
WILKERSON PASS FAIR      36  23  60 CALM      30.23S
$$

COZ069>075-261400-
...SAN LUIS VALLEY/SANGRE DE CRISTO MOUNTAINS...

CITY           SKY/WX    TMP DP  RH WIND       PRES   REMARKS
ALAMOSA        FAIR      42  34  73 CALM      30.05S
LA VETA PASS   FAIR      39  23  52 CALM      30.16R
SAGUACHE       NOT AVBL
$$

COZ035-036-038>040-261400-
...NORTHERN COLORADO FRONT RANGE...

CITY           SKY/WX    TMP DP  RH WIND       PRES   REMARKS
DENVER INTL AP PTSUNNY   51  43  74 W7        30.00F
DMNS CITY PARK   N/A     52  43  72 SW3       30.00S
AURORA         PTSUNNY   49  44  84 W5        30.01F
FRONT RANGE AP PTSUNNY   50  43  76 SW5       30.00
ERIE MUNI ARPT CLOUDY    52  46  79 CALM      30.00S
BOULDER MUN AP CLOUDY    55  36  47 SW5       30.00S
CENTENNIAL     PTSUNNY   51  40  65 W6        30.01F
BROOMFIELD     PTSUNNY   54  41  62 CALM      30.01F
FORT COLLINS   FAIR      48  41  76 CALM      30.01S
LONGMONT       PTSUNNY   53  45  75 CALM      30.01F
$$

COZ041-046-047-076>085-087-088-261400-
...PIKES PEAK/PALMER DIVIDE AND SOUTHERN FOOTHILLS...

CITY           SKY/WX    TMP DP  RH WIND       PRES   REMARKS
COLO. SPRINGS  FAIR      53  38  56 VRB3      30.03R
A. F. ACADEMY  FAIR      48  37  66 N10       30.02S
SCHRIEVER AFB  NOT AVBL
ELLICOTT       CLOUDY   N/A N/A N/A NE14      29.99S
FALCON         FAIR      50  38  65 N10       30.04S
FORT CARSON    FAIR      52  40  64 N7        30.00R
LIMON          PTSUNNY   53  48  83 N5        29.98F
MONUMENT HILL  PTSUNNY   43  37  81 W6        30.06F
TRINIDAD       FAIR      48  30  49 CALM      30.00R
$$

COZ042>045-048>051-090-091-261400-
...NORTHEAST COLORADO...

CITY           SKY/WX    TMP DP  RH WIND       PRES   REMARKS
GREELEY ARPT   FAIR      48  43  81 CALM      30.00F
AKRON          PTSUNNY   51  44  77 NW7       29.97R
BURLINGTON     FAIR      55  45  68 N10       29.92F
WRAY           FAIR      55  50  82 NW9       29.93R
STERLING       FAIR      46  45  93 CALM      29.95F
HOLYOKE        NOT AVBL
FORT MORGAN    CLOUDY    54  41  62 NW6       29.99R
$$

COZ086-089-092>099-261400-
...SOUTHEAST COLORADO...

CITY           SKY/WX    TMP DP  RH WIND       PRES   REMARKS
PUEBLO         PTSUNNY   57  43  59 NW3       29.96S
LA JUNTA       CLOUDY    59  51  75 NE9       29.93R
LAMAR          CLOUDY    58  50  75 NE7       29.88R
SPRINGFIELD      N/A     51  45  79 NW10      29.90R
$$




USA.gov is the U.S. government's official web portal to all federal, state and local government web resources and services.